{"data":{"norad_id":65043,"intl_designator":"2025-162A","name":"HULIANWANG DIGUI-40","alt_names":[],"object_type":"PAYLOAD","status":"ACTIVE","operator":null,"country":"PRC","launch_date":"2025-07-30","launch_site_code":"WSC","launch_vehicle":null,"mission":null,"orbit_class":"UNKNOWN","rcs_meters":null,"size_class":null,"mass_kg":null,"dimensions":null,"purposes":[],"wikipedia_slug":null,"has_3d_model":false,"image_url":null,"decayed_at":null,"tle_current":{"epoch":"2026-09-21T13:06:25.362432Z","epoch_age_seconds":77856,"freshness":"FRESH","line1":"1 65043U 25162A   26264.54612688 -.00000064  00000+0  12936-3 0  9998","line2":"2 65043  49.9991 280.3152 0000760 289.3589  70.7201 13.29327879 56165","mean_motion":13.29327879,"eccentricity":7.6e-5,"inclination_deg":49.9991,"raan_deg":280.3152,"arg_perigee_deg":289.3589,"mean_anomaly_deg":70.7201,"bstar":0.00012936,"rev_number":5616,"period_min":108.32541939038,"perigee_km":1148.7273933375,"apogee_km":1149.8715636822,"semimajor_km":7527.4364785098,"source":"CELESTRAK","updated_at":"2026-09-22T09:00:30.089979Z"}}}